Location: Plymouth Junction
(43.2275°N, 93.1308°W)
Time: 19:06:23
(UTC+00:00)

ARIANE 6 FM1 Upper Stage - Visible Passes

Search period start: 06 October 2024 00:00
Search period end: 16 October 2024 00:00
Orbit: 564 x 594 km, 62.0° (Epoch: 06 October)

Date Brightness Start Highest point End Pass type
(mag) Time Alt. Az. Time Alt. Az. Time Alt. Az.
11 Oct 5.5 02:17:23 10° N 02:17:46 11° N 02:17:46 11° N visible
12 Oct 5.4 02:21:19 10° NNW 02:21:55 12° N 02:21:55 12° N visible
13 Oct 5.4 02:25:22 10° NNW 02:26:05 14° NNW 02:26:05 14° NNW visible
14 Oct 5.1 00:52:48 10° NNE 00:53:02 10° NNE 00:53:17 10° NNE visible
14 Oct 5.4 02:29:28 10° NNW 02:30:17 15° NNW 02:30:17 15° NNW visible
15 Oct 4.9 00:55:42 10° N 00:57:42 13° NNE 00:58:12 13° NE visible
15 Oct 5.4 02:33:38 10° NNW 02:34:29 15° NNW 02:34:29 15° NNW visible
